World > North America > United States > Ohio > Proctor

Hourly Proctor, OH Regional Weather

Feedback E-mail the Weather

Quick WX

Proctor, OH Weather Maps

°F °C°F °C
Proctor Weather Map
UTC Time: 8/14/2022, 10:21
Your Time:

Proctor, OH Regional Weather

Expires:202208141100;;076731
ASUS41 KCLE 141010
RWRCLE
OHIO REGIONAL WEATHER ROUNDUP
NATIONAL WEATHER SERVICE WILMINGTON, OH
600 AM EDT SUN AUG 14 2022

NOTE: "FAIR" INDICATES FEW OR NO CLOUDS BELOW 12,000 FEET WITH NO
SIGNIFICANT WEATHER AND/OR OBSTRUCTIONS TO VISIBILITY.


OHZ009>014-019>023-028>033-038-089-141100-
   NORTHEAST OHIO
  
CITY           SKY/WX    TMP DP  RH WIND       PRES   REMARKS
CLE-HOPKINS    CLOUDY    66  56  70 S3        30.02F                  
CLE-LAKEFRONT  CLOUDY    68  53  58 S7        30.02F                  
CUY CO. ARPT   MOCLDY    64  53  66 SE3       30.05S                  
LORAIN-ELYRIA  CLOUDY    63  59  87 W8        30.04F                  
ASHTABULA      CLOUDY    58  55  90 CALM      30.05F                  
AKRON-CANTON   MOCLDY    65  58  78 CALM      30.04F                  
WOOSTER        LGT RAIN  62  59  90 W7        30.06S                  
MANSFIELD      LGT RAIN  60  59  96 SE5       30.05F                  
YOUNGSTOWN     CLOUDY    60  54  80 CALM      30.05F                  
$$
 

SKY/WX - Weather  TMP - Temperature  DP - Dew Point  RH - Humidity
WIND - Wind Direction/Speed PRES - Barometric Pressure VSB - Visibility
WCI - Wind Chill Index E13G22 Wind - East Wind 13 mph/Gusts of 22 mph

Trending Headlines

Proctor Radar Loop



Proctor Quick Facts


National Two Day Weather Forecast


E-mail the Proctor Weather Forecast

Voice your opinion or tell us about page issues...